When you browse on this site, cookies collect data to enhance your experience and personalize the content and advertising you see.
Visit our Privacy Policy to learn more. By continuing to use the site, you agree to this use of cookies and data.
EN

Hourly Weather Birmingham

Today, 10 July, Friday

Time Temperature Precipitation Wind Pressure Humidity
00:00 +11°C° 0 mm 3 mps 747 mmHg 93%
01:00 +11°C° 0 mm 3 mps 748 mmHg 93%
02:00 +10°C° 0 mm 3 mps 748 mmHg 92%
03:00 +10°C° 0 mm 4 mps 748 mmHg 92%
04:00 +10°C° 0 mm 4 mps 748 mmHg 90%
05:00 +10°C° 0 mm 4 mps 748 mmHg 88%
06:00 +9°C° 0 mm 5 mps 749 mmHg 86%
07:00 +10°C° 0 mm 5 mps 749 mmHg 81%
08:00 +11°C° 0 mm 6 mps 749 mmHg 75%
09:00 +13°C° 0 mm 6 mps 749 mmHg 70%
10:00 +14°C° 0.1 mm 6 mps 750 mmHg 67%
11:00 +15°C° 0.1 mm 6 mps 750 mmHg 64%
12:00 +16°C° 0.1 mm 7 mps 750 mmHg 61%
13:00 +16°C° 0 mm 6 mps 751 mmHg 60%
14:00 +16°C° 0 mm 6 mps 751 mmHg 59%
15:00 +16°C° 0 mm 6 mps 751 mmHg 59%
16:00 +16°C° 0 mm 6 mps 751 mmHg 61%
17:00 +15°C° 0 mm 6 mps 751 mmHg 63%
18:00 +15°C° 0 mm 5 mps 752 mmHg 65%
19:00 +13°C° 0 mm 4 mps 752 mmHg 71%
20:00 +12°C° 0 mm 4 mps 753 mmHg 76%
21:00 +11°C° 0 mm 3 mps 753 mmHg 81%
22:00 +10°C° 0 mm 3 mps 753 mmHg 84%
23:00 +10°C° 0 mm 3 mps 754 mmHg 87%

Tomorrow, 11 July, Saturday

Time Temperature Precipitation Wind Pressure Humidity
00:00 +9°C° 0 mm 3 mps 754 mmHg 90%
01:00 +9°C° 0 mm 3 mps 754 mmHg 90%
02:00 +9°C° 0 mm 3 mps 754 mmHg 91%
03:00 +8°C° 0 mm 3 mps 754 mmHg 92%
04:00 +9°C° 0 mm 3 mps 755 mmHg 90%
05:00 +10°C° 0 mm 3 mps 755 mmHg 88%
06:00 +10°C° 0 mm 4 mps 755 mmHg 86%
07:00 +12°C° 0 mm 4 mps 755 mmHg 80%
08:00 +13°C° 0 mm 5 mps 756 mmHg 75%
09:00 +14°C° 0 mm 5 mps 756 mmHg 69%
10:00 +15°C° 0 mm 5 mps 756 mmHg 67%
11:00 +15°C° 0 mm 5 mps 756 mmHg 65%
12:00 +17°C° 0 mm 4 mps 757 mmHg 63%
13:00 +17°C° 0 mm 4 mps 757 mmHg 62%
14:00 +18°C° 0 mm 4 mps 757 mmHg 61%
15:00 +18°C° 0 mm 4 mps 757 mmHg 60%
16:00 +18°C° 0 mm 4 mps 757 mmHg 62%
17:00 +17°C° 0 mm 4 mps 757 mmHg 64%
18:00 +17°C° 0 mm 3 mps 757 mmHg 67%
19:00 +14°C° 0 mm 3 mps 757 mmHg 70%
20:00 +13°C° 0 mm 3 mps 757 mmHg 73%
21:00 +12°C° 0 mm 2 mps 758 mmHg 77%
22:00 +10°C° 0 mm 2 mps 758 mmHg 78%
23:00 +10°C° 0 mm 2 mps 758 mmHg 80%

Day after tomorrow, 12 July, Sunday

Time Temperature Precipitation Wind Pressure Humidity
00:00 +10°C° 0 mm 1 mps 758 mmHg 82%
01:00 +10°C° 0 mm 1 mps 758 mmHg 83%
02:00 +9°C° 0 mm 1 mps 758 mmHg 84%
03:00 +9°C° 0 mm 1 mps 758 mmHg 85%
04:00 +10°C° 0 mm 1 mps 758 mmHg 83%
05:00 +11°C° 0 mm 1 mps 758 mmHg 81%
06:00 +10°C° 0 mm 0 mps 758 mmHg 80%
07:00 +12°C° 0 mm 0 mps 758 mmHg 75%
08:00 +14°C° 0 mm 0 mps 758 mmHg 70%
09:00 +15°C° 0 mm 0 mps 758 mmHg 65%
10:00 +18°C° 0 mm 1 mps 758 mmHg 61%
11:00 +19°C° 0 mm 1 mps 758 mmHg 57%
12:00 +20°C° 0 mm 1 mps 758 mmHg 53%
13:00 +21°C° 0 mm 1 mps 758 mmHg 52%
14:00 +21°C° 0 mm 1 mps 758 mmHg 51%
15:00 +22°C° 0 mm 1 mps 757 mmHg 49%
16:00 +21°C° 0 mm 1 mps 757 mmHg 53%
17:00 +21°C° 0 mm 1 mps 757 mmHg 56%
18:00 +21°C° 0 mm 1 mps 757 mmHg 59%
19:00 +19°C° 0 mm 1 mps 757 mmHg 63%
20:00 +18°C° 0 mm 1 mps 757 mmHg 67%
21:00 +15°C° 0 mm 1 mps 757 mmHg 71%
22:00 +14°C° 0 mm 1 mps 757 mmHg 75%
23:00 +14°C° 0 mm 1 mps 757 mmHg 78%

13 July, Monday

Time Temperature Precipitation Wind Pressure Humidity
00:00 +13°C° 0 mm 1 mps 757 mmHg 82%
01:00 +12°C° 0 mm 1 mps 757 mmHg 83%
02:00 +12°C° 0 mm 1 mps 756 mmHg 84%
03:00 +12°C° 0 mm 1 mps 756 mmHg 85%
04:00 +12°C° 0 mm 1 mps 756 mmHg 83%
05:00 +13°C° 0 mm 1 mps 756 mmHg 81%
06:00 +13°C° 0 mm 2 mps 756 mmHg 78%
07:00 +15°C° 0 mm 2 mps 755 mmHg 72%
08:00 +16°C° 0 mm 3 mps 755 mmHg 65%
09:00 +17°C° 0 mm 3 mps 755 mmHg 58%
10:00 +18°C° 0 mm 3 mps 755 mmHg 58%
11:00 +19°C° 0 mm 4 mps 755 mmHg 58%
12:00 +19°C° 0 mm 4 mps 754 mmHg 58%
13:00 +20°C° 0 mm 4 mps 754 mmHg 59%
14:00 +20°C° 0 mm 4 mps 754 mmHg 60%
15:00 +20°C° 0 mm 4 mps 753 mmHg 60%
16:00 +19°C° 0 mm 4 mps 753 mmHg 64%
17:00 +18°C° 0 mm 4 mps 753 mmHg 68%
18:00 +17°C° 0 mm 4 mps 752 mmHg 72%
19:00 +15°C° 0 mm 4 mps 752 mmHg 73%
20:00 +16°C° 0 mm 3 mps 752 mmHg 74%
21:00 +14°C° 0 mm 3 mps 752 mmHg 75%
22:00 +14°C° 0.1 mm 3 mps 751 mmHg 78%
23:00 +14°C° 0.1 mm 4 mps 751 mmHg 81%

14 July, Tuesday

Time Temperature Precipitation Wind Pressure Humidity
00:00 +13°C° 0.1 mm 4 mps 750 mmHg 83%
01:00 +13°C° 0.7 mm 4 mps 750 mmHg 87%
02:00 +13°C° 0.7 mm 4 mps 749 mmHg 90%
03:00 +12°C° 0.7 mm 4 mps 749 mmHg 93%
04:00 +13°C° 0.4 mm 3 mps 748 mmHg 94%
05:00 +13°C° 0.4 mm 3 mps 748 mmHg 94%
06:00 +14°C° 0.4 mm 3 mps 748 mmHg 94%
07:00 +14°C° 0.1 mm 3 mps 748 mmHg 92%
08:00 +16°C° 0.1 mm 3 mps 748 mmHg 90%
09:00 +17°C° 0.1 mm 2 mps 748 mmHg 87%
10:00 +17°C° 0.3 mm 3 mps 747 mmHg 82%
11:00 +18°C° 0.3 mm 3 mps 747 mmHg 76%
12:00 +19°C° 0.3 mm 4 mps 747 mmHg 70%
13:00 +19°C° 0.2 mm 4 mps 747 mmHg 70%
14:00 +19°C° 0.2 mm 5 mps 746 mmHg 70%
15:00 +19°C° 0.2 mm 5 mps 746 mmHg 70%
16:00 +17°C° 0.1 mm 5 mps 746 mmHg 71%
17:00 +16°C° 0.1 mm 5 mps 746 mmHg 73%
18:00 +16°C° 0.1 mm 5 mps 746 mmHg 75%
19:00 +15°C° 0 mm 4 mps 746 mmHg 77%
20:00 +14°C° 0 mm 4 mps 746 mmHg 79%
21:00 +13°C° 0 mm 3 mps 746 mmHg 81%
22:00 +13°C° 0.1 mm 3 mps 745 mmHg 84%
23:00 +13°C° 0.1 mm 3 mps 745 mmHg 87%

15 July, Wednesday

Time Temperature Precipitation Wind Pressure Humidity
00:00 +12°C° 0.1 mm 4 mps 745 mmHg 90%
01:00 +13°C° 0.1 mm 4 mps 744 mmHg 91%
02:00 +13°C° 0.1 mm 4 mps 744 mmHg 92%
03:00 +13°C° 0.1 mm 4 mps 743 mmHg 93%
04:00 +13°C° 0 mm 4 mps 743 mmHg 93%
05:00 +14°C° 0 mm 3 mps 743 mmHg 93%
06:00 +14°C° 0 mm 3 mps 743 mmHg 92%
07:00 +14°C° 0.1 mm 4 mps 744 mmHg 89%
08:00 +15°C° 0.1 mm 4 mps 744 mmHg 85%
09:00 +16°C° 0.1 mm 5 mps 744 mmHg 82%
10:00 +16°C° 0.1 mm 5 mps 745 mmHg 78%
11:00 +17°C° 0.1 mm 5 mps 745 mmHg 74%
12:00 +19°C° 0.1 mm 5 mps 746 mmHg 71%
13:00 +19°C° 0.1 mm 5 mps 746 mmHg 69%
14:00 +20°C° 0.1 mm 5 mps 746 mmHg 68%
15:00 +20°C° 0.1 mm 5 mps 746 mmHg 67%
16:00 +20°C° 0 mm 5 mps 746 mmHg 69%
17:00 +19°C° 0 mm 4 mps 747 mmHg 71%
18:00 +19°C° 0 mm 4 mps 747 mmHg 72%
19:00 +18°C° 0 mm 3 mps 748 mmHg 76%
20:00 +17°C° 0 mm 3 mps 748 mmHg 80%
21:00 +15°C° 0 mm 2 mps 749 mmHg 84%
22:00 +15°C° 0 mm 2 mps 749 mmHg 85%
23:00 +14°C° 0 mm 2 mps 749 mmHg 87%
Show more